WESTFORD NEEDLES, 2367

Orbit data source: Space-Track

WESTFORD NEEDLES, 2367 is space debris originally from a launch on Thu, 09 May 1963 UTC launched from the Air Force Western Test Range (AFWTR). Debris objects in space refer to the collection of defunct objects orbiting the Earth. Examples of debris include non-operational satellites, rocket bodies, and fragments generated from explosions, collisions, or faulty payload assembly.

Loading next visibility...
Identifier
2367, 1963-014S
Orbit
Active
Last TLE update
1 day ago
Origin
Manufacturer
Unknown
Mission
Spacecraft
Bus & Motor
Unknown
Mass
Unknown
Launch date (UTC)
1963-05-09 (62 years ago)
Launch vehicle
Unknown
Launch site
Air Force Western Test Range (AFWTR)
Object type
Payload
Rocket body
Debris
Shape & HBR
Unknown
Radar Cross Section
Medium (>0.1 m² and <1 m²)

Expand to show TLE details & history

TLE from 1 day ago
0 WESTFORD NEEDLES
1  2367U 63014S   25181.33912320  .00000008  00000-0  00000+0 0  9999
2  2367  84.6001 149.6690 2726174 186.4592 169.2819  8.92121669980522
Epoch: 2025-06-30T08:08Z
TLE epoch observation values (Epoch: 2025-06-30T08:08:20.244Z)
Latitude
-0.00002°
Longitude
108.9343°
Altitude
6,092.953 km
Speed
4.832 km/s
True Right ascension
09h 58m 40s
True Declination
0° 00' 00"
Sunlit
Object was in daylight at epoch
Visualization orbit readout
Latitude
-34.22218°
Longitude
104.96648°
Altitude
5,160.231 km
Speed
5.343 km/s
Apparent Right ascension
10h 47m 41s
Apparent Declination
-38° 26' 49"
Sunlit
Object is in daylight
Visualization observer readout
Local Sidereal Time
00:59:36
Azimuth
97.396° ESE
Elevation
-64.539°
Doppler factor
1
Orbital elements
Apogee altitude
6,116.075 km
Perigee altitude
763.108 km
Semi-major axis
9,817.728 km
Eccentricity
0.27262
Inclination
84.6001°
RAAN
149.669°
Arg. of periapsis
186.4592°
True anomaly
Unknown
Mean anomaly
169.2819°
Eccentric anomaly
Unknown
Mean motion
2.23114 °/min
Orbital period
161.35 mins
BSTAR
0
Loading maneuver chart data...
Loading SW <> Apogee altitude chart data...

WESTFORD NEEDLES Visibility forecast

Observer location: undefined°, undefined°

Span
Click to sort rows by Start time (UTC) header in descending order
Start Az.
Max El. time (UTC)
Max El. Az.
Max El.
End time (UTC)
End Az.
38 mins2025-07-01 19:17:40.619Z110.573° ESE2025-07-01 19:39:40.619Z68.312° E24.817°2025-07-01 19:55:40.619Z22.629° NE
56 mins2025-07-01 21:44:40.619Z169.858° S2025-07-01 22:18:40.619Z87.059° E44.795°2025-07-01 22:40:40.619Z6.617° NNE
48 mins2025-07-02 00:33:40.619Z229.077° WSW2025-07-02 01:02:40.619Z290.31° WNW30.597°2025-07-02 01:21:40.619Z352.533° N
14 mins2025-07-02 09:38:40.619Z355.999° N2025-07-02 09:47:40.619Z56.636° ENE44.473°2025-07-02 09:52:40.619Z170.238° S
|